Flag for United Kingdom Past Weather in Lerwick (Shetland Islands), Scotland, United Kingdom — Yesterday and Last 2 Weeks

Now
54 °F

Scattered clouds.


Feels Like: 49 °F
Forecast: 50 / 57 °F
Wind: 23 mph from West

Location: Lerwick

Current Time: Jun 27, 2016 at 7:32:35 PM

Latest Report: Jun 27, 2016 at 6:00 PM


Visibility: 19 mi

Pressure: 29.71 "Hg

Humidity: 78%

Dew Point: 48 °F

Location of Lerwick (Shetland Islands)Location

Past Weather in Lerwick (Shetland Islands) — Graph

°F

Lerwick (Shetland Islands) Temperature Yesterday

Maximum temperature yesterday: 52 °F (at 4:00 PM)
Minimum temperature yesterday: 49 °F (at 6:00 AM)
Average temperature yesterday: 50 °F

High & Low Weather Summary for the Past Weeks

 TemperatureHumidityPressure
High60 °F (Jun 22, 4:00 PM)100% (Jun 24, 2:00 AM)30.12 "Hg (Jun 24, 2:00 AM)
Low46 °F (Jun 19, 5:00 AM)55% (Jun 18, 11:00 AM)29.47 "Hg (Jun 20, 8:00 AM)
Average52 °F85%29.85 "Hg
* Reported Jun 12 6:00 PM — Jun 27 6:00 PM, Lerwick (Shetland Islands), Weather by CustomWeather, © 2016

Note: Actual official high and low records may vary slightly from our data, if they occured in-between our weather recording intervals... More about our weather records

Advertising

Lerwick (Shetland Islands) Weather History for the Previous 24 Hours

Scroll right to see more
 ConditionsComfort  
Time TempWeatherWind HumidityBarometerVisibility
6:00 PM
Mon, Jun 27
54 °FScattered clouds.23 mph78%29.71 "Hg19 mi
5:00 PM54 °FPartly sunny.26 mph80%29.70 "Hg19 mi
4:00 PM54 °FPartly sunny.22 mph81%29.70 "Hg16 mi
3:00 PM53 °FPartly sunny.18 mph84%29.69 "Hg19 mi
2:00 PM54 °FPartly sunny.21 mph77%29.67 "Hg19 mi
1:00 PM53 °FPartly sunny.23 mph74%29.66 "Hg19 mi
12:00 PM54 °FPartly sunny.22 mph79%29.65 "Hg19 mi
11:00 AM53 °FPartly sunny.23 mph84%29.64 "Hg19 mi
10:00 AM53 °FLow clouds.20 mph90%29.63 "Hg12 mi
9:00 AM52 °FLow clouds.20 mph91%29.62 "Hg12 mi
8:00 AM52 °FLow clouds.29 mph93%29.59 "Hg11 mi
7:00 AM51 °FLow clouds.26 mph93%29.60 "Hg14 mi
6:00 AM51 °FLow clouds.23 mph96%29.61 "Hg11 mi
5:00 AM51 °FLow clouds.23 mph95%29.61 "Hg11 mi
4:00 AM51 °FLight rain. Cloudy.23 mph97%29.62 "Hg4 mi
2:00 AM52 °FRain. Low clouds.12 mph98%29.63 "Hg3 mi
1:00 AM52 °FRain. Low clouds.10 mph98%29.64 "Hg2 mi
12:00 AM52 °FRain. Low clouds.10 mph97%29.65 "Hg4 mi
11:00 PM
Sun, Jun 26
51 °FRain. Low clouds.8 mph97%29.67 "Hg4 mi
10:00 PM51 °FLight rain. Low clouds.12 mph93%29.69 "Hg11 mi
9:00 PM51 °FLow clouds.12 mph88%29.70 "Hg19 mi
8:00 PM52 °FLow clouds.6 mph86%29.72 "Hg19 mi
7:00 PM52 °FPartly sunny.5 mph88%29.73 "Hg19 mi
Weather by CustomWeather, © 2016

See weather overviewHow to use our weather pages